KLM0818 EDDH-EDDP

Flight info

Callsign KLM0818
Flight time N/A
Altitude 27000
Route AMLUH2G/33 AMLUH M852 DENIX/N0415F230 Z113 SAS Z88 UPDAT T236 ADMOS T959 KOJEC KOJEC1V
Aircraft B737/M-SDE2E3FGHIRWXY/LB1

Departure

Time 2026-04-25 21:51
Airport Hamburg Helmut Schmidt Airport (EDDH)

Arrival

Time N/A
Airport Leipzig/Halle Airport (EDDP)
Time Latitude Longitude Altitude Speed Heading
2026-04-25 21:33 53.62972 10.00273 61 ft 0 kts 120°
2026-04-25 21:45 53.62976 10.00260 61 ft 2 kts 120°
2026-04-25 21:45 53.62986 10.00231 61 ft 2 kts 120°
2026-04-25 21:45 53.62994 10.00209 61 ft 2 kts 120°
2026-04-25 21:46 53.62999 10.00193 61 ft 0 kts 132°
2026-04-25 21:46 53.63005 10.00188 61 ft 1 kts 199°
2026-04-25 21:46 53.63011 10.00195 61 ft 1 kts 214°
2026-04-25 21:46 53.63012 10.00196 61 ft 0 kts 214°
2026-04-25 21:49 53.63009 10.00193 61 ft 1 kts 214°
2026-04-25 21:49 53.62994 10.00176 61 ft 3 kts 212°
2026-04-25 21:50 53.62962 10.00144 61 ft 6 kts 210°
2026-04-25 21:50 53.62914 10.00097 61 ft 8 kts 212°
2026-04-25 21:50 53.62863 10.00014 61 ft 11 kts 237°
2026-04-25 21:50 53.62833 9.99928 61 ft 12 kts 242°
2026-04-25 21:51 53.62880 9.99732 61 ft 25 kts 332°
2026-04-25 21:51 53.63226 9.99434 61 ft 96 kts 332°
2026-04-25 21:51 53.64161 9.98623 109 ft 183 kts 332°
2026-04-25 21:51 53.65434 9.97493 858 ft 215 kts 333°
2026-04-25 21:52 53.66713 9.96418 2279 ft 212 kts 333°
2026-04-25 21:52 53.68087 9.95256 3547 ft 220 kts 333°
2026-04-25 21:52 53.69529 9.94563 4752 ft 225 kts 358°
2026-04-25 21:52 53.71069 9.94643 5976 ft 228 kts
2026-04-25 21:53 53.72596 9.95344 7119 ft 233 kts 29°
2026-04-25 21:53 53.73812 9.97127 8248 ft 236 kts 54°
2026-04-25 21:53 53.74493 9.99687 9353 ft 240 kts 79°
2026-04-25 21:53 53.74497 10.02538 10306 ft 250 kts 99°
2026-04-25 21:54 53.73820 10.05662 10362 ft 299 kts 121°
2026-04-25 21:54 53.72498 10.08881 10646 ft 336 kts 121°
2026-04-25 21:54 53.71299 10.12321 11891 ft 339 kts 120°
2026-04-25 21:54 53.70055 10.15922 12942 ft 347 kts 124°
2026-04-25 21:55 53.68378 10.19083 14038 ft 352 kts 134°
2026-04-25 21:55 53.66453 10.21798 15019 ft 359 kts 148°
2026-04-25 21:55 53.64059 10.23502 16026 ft 364 kts 165°
2026-04-25 21:55 53.61530 10.24038 16974 ft 369 kts 176°
2026-04-25 21:56 53.58915 10.24775 17856 ft 375 kts 164°
2026-04-25 21:56 53.57167 10.25680 18508 ft 377 kts 162°
2026-04-25 21:56 53.53793 10.27506 19647 ft 384 kts 162°
2026-04-25 21:56 53.51187 10.28913 20471 ft 389 kts 162°
2026-04-25 21:57 53.48626 10.30293 21247 ft 394 kts 162°
2026-04-25 21:57 53.45947 10.31736 22035 ft 398 kts 162°
2026-04-25 21:57 53.43228 10.33197 22784 ft 403 kts 162°
2026-04-25 21:57 53.40456 10.34685 23540 ft 407 kts 162°
2026-04-25 21:58 53.37683 10.36173 24239 ft 412 kts 162°
2026-04-25 21:58 53.34904 10.37660 24901 ft 416 kts 162°
2026-04-25 21:58 53.32019 10.39203 25565 ft 421 kts 162°
2026-04-25 21:58 53.29137 10.40742 26210 ft 425 kts 162°
2026-04-25 21:59 53.26227 10.42293 26763 ft 423 kts 162°
2026-04-25 21:59 53.23222 10.43893 26854 ft 439 kts 162°
2026-04-25 21:59 53.20158 10.45522 26868 ft 447 kts 162°
2026-04-25 22:00 53.14050 10.48761 26857 ft 443 kts 162°
2026-04-25 22:00 53.11005 10.50372 26887 ft 443 kts 162°
2026-04-25 22:00 53.08049 10.51934 26849 ft 443 kts 162°
2026-04-25 22:00 53.05056 10.53514 26852 ft 443 kts 162°
2026-04-25 22:01 53.02068 10.55088 26854 ft 443 kts 162°
2026-04-25 22:01 52.99077 10.56662 26853 ft 443 kts 162°
2026-04-25 22:01 52.96019 10.58268 26854 ft 443 kts 162°
2026-04-25 22:01 52.94013 10.59321 26874 ft 443 kts 162°
2026-04-25 22:02 52.90056 10.61394 26882 ft 444 kts 162°
2026-04-25 22:02 52.87134 10.62923 26855 ft 443 kts 162°
2026-04-25 22:02 52.84168 10.64472 26861 ft 443 kts 162°
2026-04-25 22:02 52.81152 10.66044 26855 ft 443 kts 163°
2026-04-25 22:03 52.78066 10.67652 26852 ft 443 kts 163°
2026-04-25 22:03 52.74995 10.69249 26853 ft 443 kts 163°
2026-04-25 22:03 52.71889 10.70861 26853 ft 443 kts 163°
2026-04-25 22:03 52.68887 10.72418 26854 ft 443 kts 163°
2026-04-25 22:04 52.59663 10.77187 26855 ft 443 kts 163°
2026-04-25 22:04 52.56585 10.78773 26855 ft 443 kts 163°
2026-04-25 22:05 52.53503 10.80359 26889 ft 443 kts 163°
2026-04-25 22:06 52.41566 10.86481 26890 ft 443 kts 163°
2026-04-25 22:06 52.38409 10.88097 26946 ft 443 kts 163°
2026-04-25 22:06 52.35269 10.89698 26931 ft 445 kts 163°